Location: Dompnac
(44.5644°N, 4.1026°E)
Time: 00:08:36
(UTC+00:00)

PCSat - Visible Passes

Search period start: 03 March 2021 00:00
Search period end: 13 March 2021 00:00
Orbit: 784 x 795 km, 67.1° (Epoch: 02 March)

Date Brightness Start Highest point End Pass type
(mag) Time Alt. Az. Time Alt. Az. Time Alt. Az.
03 Mar 10.5 03:11:43 45° ENE 03:11:43 45° ENE 03:15:45 10° NE visible
03 Mar 10.7 04:52:26 23° WNW 04:54:09 27° NW 04:58:45 10° NNE visible
04 Mar 11.4 02:41:45 28° ENE 02:41:45 28° ENE 02:44:34 10° NE visible
04 Mar 10.3 04:22:28 33° WNW 04:22:57 34° NW 04:27:54 10° NNE visible
05 Mar 12.0 02:11:43 18° ENE 02:11:43 18° ENE 02:13:17 10° NE visible
05 Mar 10.2 03:52:26 42° NNW 03:52:26 42° NNW 03:56:59 10° NNE visible
05 Mar 11.6 05:34:46 10° NW 05:36:39 12° NNW 05:38:32 10° N visible
06 Mar 12.5 01:41:39 11° ENE 01:41:39 11° ENE 01:41:51 10° ENE visible
06 Mar 10.5 03:22:21 40° N 03:22:21 40° N 03:26:03 10° NNE visible
06 Mar 11.5 05:03:04 11° WNW 05:05:16 14° NNW 05:08:06 10° N visible
07 Mar 11.1 02:52:13 32° NNE 02:52:13 32° NNE 02:55:04 10° NNE visible
07 Mar 11.2 04:32:55 16° NW 04:33:54 17° NW 04:37:28 10° N visible
08 Mar 11.7 02:22:03 23° NE 02:22:03 23° NE 02:24:01 10° NNE visible
08 Mar 11.1 04:02:45 21° NW 04:02:45 21° NW 04:06:43 10° N visible
09 Mar 12.1 01:51:50 16° NE 01:51:50 16° NE 01:52:56 10° NE visible
09 Mar 11.1 03:32:32 24° NNW 03:32:32 24° NNW 03:35:54 10° NNE visible
10 Mar 12.5 01:21:36 11° NE 01:21:36 11° NE 01:21:46 10° NE visible
10 Mar 11.3 03:02:18 25° N 03:02:18 25° N 03:05:03 10° NNE visible
11 Mar 11.6 02:32:01 22° N 02:32:01 22° N 02:34:09 10° NNE visible
11 Mar 11.7 04:12:43 11° NW 04:13:52 11° NNW 04:15:37 10° N visible
12 Mar 11.9 02:01:43 19° NNE 02:01:43 19° NNE 02:03:13 10° NNE visible
12 Mar 11.7 03:42:25 14° NNW 03:42:28 14° NNW 03:45:13 10° N visible
